Starlink 3231

operational
NORAD ID: 49744 Int'l Des: 2021-115 Owner: SPXS Country: US Constellation: starlink
LEOCIRCULAR

Über Starlink 3231

Beschreibung wird geladen...

Live-Position

3D-Globus wird geladen...

Nächste Überflüge

Höhenverlauf

Altitude vs Time

uPlot chart will show altitude changes over time

Zweizeiliger Elementsatz

1 49744U 21115W 25305.58617924 -.00001093 00000-0 -50622-4 0 9999
2 49744 53.2183 4.0917 0001352 91.0328 269.0819 15.08830702216195
Epoch: 1. Nov. 2025 • Age: 18 hours

Aktueller Status

Höhe 547.2 km
Geschwindigkeit 7.59 km/s
Subsatellitenpunkt -24.29°S, 31.1°E
Startdatum 2. Dez. 2021
Alter 3.9 years
Typ internet

Technische Details

Klassifizierung Payload
Masse 290.00 kg
Trockenmasse 270.00 kg
Gesamtmasse 290.00 kg
Länge 0.20 m
Durchmesser 2.80 m
Spannweite 9.00 m
Form Box + pan
Hersteller SPXS
Bus-Typ Starlink
Phasenstatus In Orbit
Besitzer/Staat SPXS/US

Große Konstellationen

Loading constellations...